Flag for Algeria Weather past 2 weeks in Constantine, Algeria

Now
59 °F

Sunny.


Feels Like: 58 °F
Forecast: 61 / 77 °F
Wind: 6 mph from Southeast

Location: Constantine Airport

Current Time: May 29, 2015 at 7:25:43 AM

Latest Report: May 29, 2015 at 6:30 AM


Visibility: 10 mi

Pressure: 30.04 "Hg

Humidity: 63%

Dew point: 46 °F

Location of ConstantineLocation

Historic Weather in Constantine — Graph

°F

Constantine temperature yesterday

Maximum temperature yesterday: 79 °F (at 4:00 PM)
Minimum temperature yesterday: 45 °F (at 3:30 AM)
Average temperature yesterday: 62 °F

Past Weeks' High & Low Weather Summary

 TemperatureHumidityPressure
High97 °F (May 14, 3:00 PM)94% (May 17, 7:30 AM)30.24 "Hg (May 17, 7:30 AM)
Low41 °F (May 22, 3:30 AM)12% (May 14, 5:00 PM)29.86 "Hg (May 19, 2:00 PM)
Average61 °F63%30.06 "Hg
* Reported May 14 6:00 AM — May 29 6:30 AM, Constantine, Weather by CustomWeather, © 2015

Note: Actual official high and low records may vary slightly from our data, if they occured in-between our weather recording intervals... More about our weather records

Advertising

Constantine weather history for previous 24 hours

 ConditionsComfort  
Time TempWeatherWind HumidityBarometerVisibility
6:30 AM
Fri, May 29
59 °FSunny.6 mph63%30.04 "Hg10 mi
6:00 AM55 °FSunny.7 mph67%30.04 "Hg10 mi
5:30 AM55 °FSunny.7 mph67%30.04 "Hg10 mi
5:00 AM54 °FClear.2 mph72%30.04 "Hg10 mi
4:30 AM55 °FClear.3 mph72%30.04 "Hg10 mi
3:30 AM55 °FClear.5 mph67%30.07 "Hg10 mi
3:00 AM55 °FClear.6 mph72%30.07 "Hg10 mi
2:30 AM55 °FClear.2 mph72%30.07 "Hg10 mi
2:00 AM55 °FClear.5 mph67%30.07 "Hg10 mi
1:30 AM57 °FClear.7 mph67%30.09 "Hg10 mi
1:00 AM55 °FClear.6 mph72%30.09 "Hg10 mi
12:30 AM57 °FClear.3 mph72%30.12 "Hg10 mi
11:00 PM
Thu, May 28
59 °FClear.3 mph68%30.12 "Hg10 mi
10:30 PM59 °FClear.7 mph68%30.12 "Hg10 mi
10:00 PM59 °FClear.5 mph63%30.12 "Hg10 mi
9:30 PM63 °FClear.5 mph59%30.12 "Hg10 mi
9:00 PM64 °FClear.7 mph56%30.12 "Hg10 mi
8:30 PM64 °FClear.5 mph56%30.09 "Hg10 mi
8:00 PM68 °FClear.7 mph49%30.09 "Hg10 mi
7:30 PM68 °FSunny.9 mph53%30.09 "Hg10 mi
7:00 PM72 °FSunny.12 mph47%30.09 "Hg10 mi
6:30 PM75 °FPassing clouds.10 mph41%30.09 "HgN/A
6:00 PM75 °FSunny.12 mph39%30.09 "Hg10 mi
5:30 PM77 °FSunny.7 mph32%30.09 "Hg10 mi
5:00 PM77 °FSunny.8 mph30%30.09 "Hg10 mi
4:30 PM77 °FSunny.12 mph30%30.09 "Hg10 mi
4:00 PM79 °FSunny.8 mph28%30.09 "Hg10 mi
3:30 PM77 °FSunny.12 mph30%30.12 "Hg10 mi
3:00 PM77 °FSunny.9 mph30%30.12 "Hg10 mi
2:30 PM77 °FSunny.9 mph30%30.15 "Hg10 mi
2:00 PM75 °FSunny.12 mph29%30.15 "Hg10 mi
1:30 PM75 °FSunny.7 mph29%30.15 "Hg10 mi
1:00 PM75 °FSunny.7 mph29%30.15 "Hg10 mi
12:30 PM73 °FSunny.7 mph31%30.18 "Hg10 mi
12:00 PM72 °FSunny.6 mph33%30.18 "Hg10 mi
11:30 AM72 °FSunny.6 mph36%30.18 "Hg10 mi
11:00 AM68 °FSunny.6 mph40%30.18 "Hg10 mi
10:30 AM68 °FSunny.No wind43%30.18 "Hg10 mi
10:00 AM68 °FSunny.No wind40%30.18 "Hg10 mi
9:30 AM64 °FSunny.5 mph49%30.18 "Hg10 mi
9:00 AM63 °FSunny.No wind52%30.18 "Hg10 mi
8:30 AM61 °FSunny.No wind55%30.18 "Hg10 mi
8:00 AM55 °FSunny.No wind72%30.18 "Hg10 mi
7:30 AM54 °FSunny.No wind72%30.18 "Hg10 mi
7:00 AM50 °FSunny.No wind82%30.18 "Hg10 mi
Weather by CustomWeather, © 2015

See weather overviewHow to use our weather pages